TimeCST,TemperatureF,Dew PointF,Humidity,Sea Level PressureIn,VisibilityMPH,Wind Direction,Wind SpeedMPH,Gust SpeedMPH,PrecipitationIn,Events,Conditions,WindDirDegrees,DateUTC
12:53 AM,66.0,64.0,93,30.04,9.0,SSW,4.6,-,N/A,,Overcast,200,2013-01-13 06:53:00
1:09 AM,66.2,64.4,94,30.04,8.0,SSW,3.5,-,N/A,,Overcast,200,2013-01-13 07:09:00
1:53 AM,66.0,63.0,90,30.04,8.0,Calm,Calm,-,N/A,,Overcast,0,2013-01-13 07:53:00
2:24 AM,64.4,62.6,94,30.03,7.0,SSE,3.5,-,N/A,,Mostly Cloudy,160,2013-01-13 08:24:00
2:53 AM,64.9,63.0,93,30.01,7.0,Variable,3.5,-,N/A,,Mostly Cloudy,0,2013-01-13 08:53:00
3:01 AM,66.2,64.4,94,30.02,7.0,Variable,3.5,-,N/A,,Mostly Cloudy,0,2013-01-13 09:01:00
3:53 AM,66.0,64.0,93,30.00,8.0,South,5.8,-,N/A,,Overcast,170,2013-01-13 09:53:00
4:53 AM,66.0,63.0,90,30.01,8.0,South,3.5,-,N/A,,Overcast,180,2013-01-13 10:53:00
5:53 AM,66.9,64.0,90,30.04,9.0,South,4.6,-,N/A,,Overcast,170,2013-01-13 11:53:00
6:53 AM,66.9,64.0,90,30.04,10.0,South,6.9,-,N/A,,Overcast,180,2013-01-13 12:53:00
7:09 AM,66.2,64.4,94,30.04,10.0,South,6.9,-,N/A,,Overcast,170,2013-01-13 13:09:00
7:53 AM,68.0,64.0,87,30.05,10.0,South,8.1,-,N/A,,Overcast,170,2013-01-13 13:53:00
8:53 AM,69.1,64.0,84,30.06,10.0,SSE,11.5,-,N/A,,Overcast,150,2013-01-13 14:53:00
9:15 AM,71.6,64.4,78,30.07,10.0,South,11.5,16.1,N/A,,Overcast,180,2013-01-13 15:15:00
9:53 AM,73.0,64.0,73,30.06,10.0,South,10.4,-,N/A,,Overcast,180,2013-01-13 15:53:00
10:53 AM,73.9,63.0,68,30.03,10.0,South,6.9,20.7,N/A,,Mostly Cloudy,180,2013-01-13 16:53:00
11:20 AM,75.2,64.4,69,30.03,10.0,South,8.1,-,N/A,,Overcast,190,2013-01-13 17:20:00
11:53 AM,75.9,63.0,64,30.03,10.0,SSW,13.8,18.4,N/A,,Overcast,200,2013-01-13 17:53:00
12:53 PM,79.0,60.1,52,30.01,10.0,South,12.7,25.3,N/A,,Scattered Clouds,190,2013-01-13 18:53:00
1:53 PM,78.1,60.1,54,30.01,10.0,SSW,15.0,-,N/A,,Clear,200,2013-01-13 19:53:00
2:53 PM,77.0,63.0,62,30.01,10.0,South,15.0,21.9,N/A,,Mostly Cloudy,190,2013-01-13 20:53:00
3:53 PM,75.9,63.0,64,30.01,10.0,SSW,12.7,20.7,N/A,,Clear,200,2013-01-13 21:53:00
4:53 PM,73.9,64.0,71,30.02,10.0,South,5.8,-,N/A,,Mostly Cloudy,190,2013-01-13 22:53:00
5:53 PM,73.0,63.0,71,30.04,10.0,South,5.8,-,N/A,,Overcast,190,2013-01-13 23:53:00
6:53 PM,72.0,64.0,76,30.04,10.0,South,4.6,-,N/A,,Overcast,180,2013-01-14 00:53:00
7:53 PM,71.1,64.0,78,30.04,10.0,South,10.4,-,N/A,,Overcast,190,2013-01-14 01:53:00
8:53 PM,71.1,64.9,81,30.04,10.0,South,9.2,-,N/A,,Overcast,180,2013-01-14 02:53:00
9:53 PM,71.1,64.9,81,30.06,10.0,South,5.8,-,N/A,,Overcast,180,2013-01-14 03:53:00
10:53 PM,70.0,66.0,87,30.06,10.0,South,9.2,-,N/A,,Overcast,180,2013-01-14 04:53:00
11:24 PM,69.8,66.2,88,30.05,10.0,South,6.9,-,N/A,,Overcast,170,2013-01-14 05:24:00
11:35 PM,69.8,66.2,88,30.05,10.0,South,6.9,-,N/A,,Overcast,170,2013-01-14 05:35:00
11:53 PM,70.0,66.0,87,30.04,10.0,South,8.1,-,N/A,,Overcast,180,2013-01-14 05:53:00